TimePST,TemperatureF,Dew PointF,Humidity,Sea Level PressureIn,VisibilityMPH,Wind Direction,Wind SpeedMPH,Gust SpeedMPH,PrecipitationIn,Events,Conditions,WindDirDegrees,DateUTC
12:56 AM,30.9,30.0,96,30.17,10.0,Calm,Calm,-,N/A,,Overcast,0,2012-12-06 08:56:00
1:56 AM,30.9,30.0,96,30.17,10.0,Calm,Calm,-,N/A,,Overcast,0,2012-12-06 09:56:00
2:31 AM,30.2,30.2,100,30.10,10.0,Calm,Calm,-,N/A,,Overcast,0,2012-12-06 10:31:00
2:56 AM,30.9,30.0,96,30.16,10.0,Calm,Calm,-,N/A,,Overcast,0,2012-12-06 10:56:00
3:56 AM,30.9,30.0,96,30.17,10.0,Calm,Calm,-,N/A,,Overcast,0,2012-12-06 11:56:00
4:56 AM,30.9,28.9,92,30.17,10.0,Calm,Calm,-,N/A,,Overcast,0,2012-12-06 12:56:00
5:56 AM,30.0,28.9,96,30.16,10.0,Calm,Calm,-,N/A,,Overcast,0,2012-12-06 13:56:00
6:56 AM,30.9,30.0,96,30.16,10.0,Calm,Calm,-,N/A,,Overcast,0,2012-12-06 14:56:00
7:56 AM,30.9,28.9,92,30.15,10.0,Calm,Calm,-,N/A,,Overcast,0,2012-12-06 15:56:00
8:46 AM,30.2,28.4,93,30.08,10.0,Calm,Calm,-,N/A,,Overcast,0,2012-12-06 16:46:00
8:56 AM,30.9,28.0,89,30.16,10.0,Calm,Calm,-,N/A,,Overcast,0,2012-12-06 16:56:00
9:56 AM,33.1,28.0,82,30.15,10.0,Calm,Calm,-,N/A,,Overcast,0,2012-12-06 17:56:00
10:56 AM,33.1,27.0,78,30.15,10.0,Calm,Calm,-,N/A,,Overcast,0,2012-12-06 18:56:00
11:56 AM,34.0,26.1,73,30.12,10.0,Calm,Calm,-,N/A,,Overcast,0,2012-12-06 19:56:00
12:56 PM,35.1,25.0,67,30.11,10.0,Variable,3.5,-,N/A,,Overcast,0,2012-12-06 20:56:00
2:00 PM,33.8,26.6,75,30.03,2.0,Calm,Calm,-,0.00,Snow,Light Snow,0,2012-12-06 22:00:00
2:07 PM,33.8,26.6,75,30.02,1.5,Calm,Calm,-,0.00,Snow,Light Snow,0,2012-12-06 22:07:00
2:16 PM,33.8,26.6,75,30.02,2.5,Calm,Calm,-,0.00,Snow,Light Snow,0,2012-12-06 22:16:00
2:23 PM,33.8,28.4,81,30.02,9.0,Calm,Calm,-,0.00,,Overcast,0,2012-12-06 22:23:00
2:56 PM,33.1,28.0,82,30.09,10.0,Calm,Calm,-,0.00,,Overcast,0,2012-12-06 22:56:00
3:56 PM,34.0,26.1,73,30.10,10.0,Calm,Calm,-,N/A,,Overcast,0,2012-12-06 23:56:00
4:34 PM,33.8,26.6,75,30.03,2.5,Variable,4.6,-,0.00,Snow,Light Snow,0,2012-12-07 00:34:00
4:56 PM,32.0,28.0,85,30.10,1.5,Calm,Calm,-,0.00,Snow,Light Snow,0,2012-12-07 00:56:00
5:07 PM,32.0,28.4,87,30.03,2.0,Calm,Calm,-,0.00,Snow,Light Snow,0,2012-12-07 01:07:00
5:16 PM,32.0,28.4,87,30.03,3.0,Calm,Calm,-,0.00,Snow,Light Snow,0,2012-12-07 01:16:00
5:56 PM,32.0,28.9,88,30.10,10.0,Calm,Calm,-,0.00,,Overcast,0,2012-12-07 01:56:00
6:14 PM,32.0,28.4,87,30.03,2.5,Calm,Calm,-,0.00,Snow,Light Snow,0,2012-12-07 02:14:00
6:22 PM,32.0,28.4,87,30.03,1.2,Calm,Calm,-,0.00,Snow,Light Snow,0,2012-12-07 02:22:00
6:37 PM,32.0,28.4,87,30.03,3.0,Calm,Calm,-,0.01,Snow,Light Snow,0,2012-12-07 02:37:00
6:48 PM,32.0,28.4,87,30.03,5.0,Calm,Calm,-,0.01,Snow,Light Snow,0,2012-12-07 02:48:00
6:56 PM,32.0,30.0,92,30.10,8.0,Calm,Calm,-,0.01,Snow,Light Snow,0,2012-12-07 02:56:00
7:56 PM,33.1,28.0,82,30.12,3.0,Calm,Calm,-,0.00,Snow,Light Snow,0,2012-12-07 03:56:00
8:02 PM,33.8,28.4,81,30.04,1.8,Variable,3.5,-,0.00,Snow,Light Snow,0,2012-12-07 04:02:00
8:16 PM,33.8,28.4,81,30.04,2.5,Calm,Calm,-,0.01,Snow,Light Snow,0,2012-12-07 04:16:00
8:24 PM,33.8,28.4,81,30.04,3.0,Calm,Calm,-,0.01,Snow,Light Snow,0,2012-12-07 04:24:00
8:33 PM,32.0,28.4,87,30.04,2.0,Calm,Calm,-,0.02,Snow,Light Snow,0,2012-12-07 04:33:00
8:40 PM,33.8,28.4,81,30.04,3.0,Calm,Calm,-,0.03,Snow,Light Snow,0,2012-12-07 04:40:00
9:02 PM,32.0,28.4,87,30.04,2.5,Variable,4.6,-,0.00,Snow,Light Snow,0,2012-12-07 05:02:00
9:11 PM,33.8,28.4,81,30.05,1.2,Calm,Calm,-,0.01,Snow,Light Snow,0,2012-12-07 05:11:00
9:56 PM,32.0,30.0,92,30.11,1.5,Calm,Calm,-,0.08,Snow,Light Snow,0,2012-12-07 05:56:00
10:56 PM,33.1,28.9,85,30.12,3.0,Variable,3.5,-,0.07,Snow,Light Snow,0,2012-12-07 06:56:00
11:05 PM,33.8,30.2,87,30.05,2.0,Variable,3.5,-,0.00,Snow,Light Snow,0,2012-12-07 07:05:00
11:22 PM,32.0,30.2,93,30.05,4.0,Calm,Calm,-,0.02,Snow,Light Snow,0,2012-12-07 07:22:00
11:56 PM,33.1,28.9,85,30.11,7.0,Calm,Calm,-,0.03,Snow,Light Snow,0,2012-12-07 07:56:00